STARLINK-34456, 64439

Orbit data source: Space-Track

STARLINK-34456, 64439 is a payload satellite owned by SpaceX/Seattle (US) in LEO that was launched on Wed, 18 Jun 2025 UTC via an FALCON 9 launch vehicle from the Air Force Eastern Test Range (AFETR). Payload-class satellites include a variety of spacecraft equipped with specific instruments for various scientific and technological missions. These include communications satellites like Starlink; space stations such as the ISS; scientific satellites like the Hubble; Earth observation satellites from companies like Planet Labs, Umbra, and HawkEye 360; GPS; miniature CubeSats for education and research; and military/defense satellites.

Loading next visibility...
Identifier
64439, 2025-130B
Orbit
LEO
Country
Flag of USUS
Related business
Manufacturer
SpaceX/Seattle
Mission
Operational Commercial Communications
Bus & Motor
STARLINK V2MO, Unknown motor
Mass
575 kg wet, ~530 kg dry
Launch date (UTC)
2025-06-18 (1 year ago)
Launch vehicle
FALCON 9
Launch site
Air Force Eastern Test Range (AFETR)
Object type
Payload
Rocket body
Debris
Shape & HBR
Box + 2 Pan, 17.7 m
Radar Cross Section
36.964 m², Large (>1 m²)

Expand to show TLE details & history
Last TLE update: 16 hours ago

TLE from 16 hours ago
0 STARLINK-34456
1 64439U 25130B   26171.16877323  .00013031  00000-0  39613-3 0  9994
2 64439  53.1596 331.0777 0001262 105.7793 254.3349 15.34401093 56414
Epoch: 2026-06-20T04:03Z
TLE epoch observation values (Epoch: 2026-06-20T04:03:02.007Z)
Latitude
0.00001°
Longitude
1.93209°
Altitude
463.834 km
Speed
7.636 km/s
True Right ascension
22h 04m 18s
True Declination
0° 00' 00"
Sunlit
Object was in full shadow at epoch
Visualization orbit readout
Latitude
Unknown
Longitude
Unknown
Altitude
Unknown
Speed
Unknown
Apparent Right ascension
Unknown
Apparent Declination
Unknown
Sunlit
N/A
Visualization observer readout
Local Sidereal Time
07:13:14
Azimuth
Unknown
Elevation
Unknown
Doppler factor
Unknown
Orbital elements
Apogee altitude
463.82 km
Perigee altitude
462.094 km
Semi-major axis
6,841.094 km
Eccentricity
0.00013
Inclination
53.1596°
RAAN
331.0777°
Arg. of periapsis
105.7793°
True anomaly
254.32098°
Mean anomaly
254.3349°
Eccentric anomaly
254.32794°
Mean motion
3.83579 °/min
Orbital period
93.85 mins
BSTAR
0.00039613
Loading maneuver chart data...
Computing Atmospheric mass density...
Loading historical data...
Loading historical data...
Loading historical data...
Loading historical data...
Loading historical data...
Loading historical data...
Loading historical data...

Documentation

Showing up to 5 results
|